Indianapolis, IN

11:21 PM EDT on July 25, 2017 (GMT -0400)
Indianapolis International

Weather History for KIND - September, 2013

Change the Weather History Date:

Thursday, September 19, 2013

  Actual Average Record
Temperature  
Mean Temperature 74 °F 66 °F  
Max Temperature 82 °F 76 °F 93 °F (1940)
Min Temperature 65 °F 55 °F 38 °F (1956)
Degree Days  
Heating Degree Days 0 3  
Month to date heating degree days 12 22  
Since 1 July heating degree days 20 26  
Cooling Degree Days 9 3  
Month to date cooling degree days 151 103  
Year to date cooling degree days 1110 1024  
Growing Degree Days 23 (Base 50)    
Moisture  
Dew Point 66 °F    
Average Humidity 82    
Maximum Humidity 97    
Minimum Humidity 67    
Precipitation  
Precipitation 1.53 in 0.11 in 2.29 in (1896)
Month to date precipitation 1.81 1.95  
Year to date precipitation 31.74 31.28  
Snow  
Snow 0.00 in 0.00 in 0.00 in ()
Month to date snowfall 0.0 0.0  
Since 1 July snowfall 0.0 0.0  
Since 1 September snowfall 0.0 0.0  
Snow Depth 0.00 in    
Sea Level Pressure  
Sea Level Pressure 30.02 in    
Wind  
Wind Speed 10 mph (SSW)    
Max Wind Speed 26 mph    
Max Gust Speed 32 mph    
Visibility 6 miles    
Events Rain , Thunderstorm    
T = Trace of Precipitation, MM = Missing Value Source: NWS Daily Summary

Daily Weather History Graph

Daily Weather History Graph

Search for Another Location

Airport or City:

Trip Planner

Search our weather history database for the weather conditions in past years. The results will help you decide how hot, cold, wet, or windy it might be!

Date:

Astronomy

Sep. 19, 2013 Rise Set
Actual Time 7:30 AM EDT 7:46 PM EDT
Civil Twilight 7:03 AM EDT 8:13 PM EDT
Nautical Twilight 6:31 AM EDT 8:45 PM EDT
Astronomical Twilight 5:59 AM EDT 9:17 PM EDT
Moon 7:44 PM EDT (9/19) 7:38 AM EDT (9/19)
Length of Visible Light 13h 10m
Length of Day
12h 16m
Full, 100% of the Moon is Illuminated
Sep 19
Full
Sep 26
Last Quarter
Oct 4
New
Oct 11
First Quarter
Oct 18
Full

Hourly Weather History & Observations

Time (EDT) Temp. Heat Index Dew Point Humidity Pressure Visibility Wind Dir Wind Speed Gust Speed Precip Events Conditions
12:54 AM 69.1 °F - 64.0 °F 84% 30.03 in 9.0 mi South 5.8 mph - N/A   Mostly Cloudy
1:54 AM 68.0 °F - 64.9 °F 90% 30.02 in 7.0 mi South 8.1 mph - N/A   Mostly Cloudy
2:54 AM 68.0 °F - 64.9 °F 90% 30.02 in 6.0 mi South 4.6 mph - N/A   Overcast
3:54 AM 69.1 °F - 66.0 °F 90% 30.01 in 6.0 mi SSW 11.5 mph - N/A   Overcast
4:54 AM 70.0 °F - 66.0 °F 87% 30.01 in 5.0 mi SSW 10.4 mph - N/A   Overcast
5:33 AM 69.8 °F - 66.2 °F 88% 30.03 in 5.0 mi SW 8.1 mph - N/A Thunderstorm Overcast
5:44 AM 69.8 °F - 66.2 °F 88% 30.07 in 1.5 mi NNW 24.2 mph 29.9 mph N/A Rain , Thunderstorm Heavy Thunderstorms and Rain
5:54 AM 66.0 °F - 64.0 °F 93% 30.04 in 1.8 mi NNW 11.5 mph 32.2 mph N/A Rain , Thunderstorm Heavy Thunderstorms and Rain
6:02 AM 64.4 °F - 62.6 °F 94% 30.08 in 2.5 mi Variable 3.5 mph - N/A Rain , Thunderstorm Thunderstorms and Rain
6:11 AM 66.2 °F - 62.6 °F 88% 30.06 in 2.5 mi SSW 10.4 mph - N/A Rain , Thunderstorm Thunderstorms and Rain
6:46 AM 64.4 °F - 64.4 °F 100% 30.06 in 4.0 mi South 6.9 mph - N/A Rain , Thunderstorm Light Thunderstorms and Rain
6:54 AM 64.9 °F - 63.0 °F 93% 30.04 in 5.0 mi SSE 6.9 mph - N/A Rain , Thunderstorm Light Thunderstorms and Rain
7:47 AM 64.4 °F - 64.4 °F 100% 30.07 in 10.0 mi South 4.6 mph - N/A   Overcast
7:54 AM 64.9 °F - 64.0 °F 97% 30.06 in 10.0 mi South 8.1 mph - N/A   Overcast
8:01 AM 64.4 °F - 62.6 °F 94% 30.08 in 10.0 mi South 8.1 mph - N/A   Overcast
8:54 AM 66.0 °F - 64.0 °F 93% 30.06 in 5.0 mi Calm Calm - N/A Rain Light Rain
9:10 AM 66.2 °F - 64.4 °F 94% 30.08 in 2.0 mi South 5.8 mph - N/A Rain Heavy Rain
9:13 AM 66.2 °F - 64.4 °F 94% 30.08 in 4.0 mi South 6.9 mph - N/A Rain , Thunderstorm Light Thunderstorms and Rain
9:32 AM 66.2 °F - 64.4 °F 94% 30.09 in 2.5 mi Variable 3.5 mph - N/A Rain , Thunderstorm Thunderstorms and Rain
9:34 AM 66.2 °F - 64.4 °F 94% 30.08 in 1.5 mi SSE 4.6 mph - N/A Rain , Thunderstorm Heavy Thunderstorms and Rain
9:46 AM 66.2 °F - 64.4 °F 94% 30.09 in 2.5 mi Calm Calm - N/A Rain , Thunderstorm Thunderstorms and Rain
9:50 AM 66.2 °F - 64.4 °F 94% 30.10 in 4.0 mi West 3.5 mph - N/A Rain , Thunderstorm Light Thunderstorms and Rain
9:54 AM 66.0 °F - 64.0 °F 93% 30.09 in 4.0 mi WSW 3.5 mph - N/A Rain , Thunderstorm Light Thunderstorms and Rain
10:54 AM 66.0 °F - 64.0 °F 93% 30.05 in 4.0 mi South 18.4 mph - N/A Rain , Thunderstorm Thunderstorms and Rain
11:25 AM 66.2 °F - 66.2 °F 100% 30.07 in 5.0 mi SSW 13.8 mph - N/A Rain Light Rain
11:54 AM 66.9 °F - 66.0 °F 97% 30.04 in 8.0 mi South 13.8 mph - N/A   Scattered Clouds
12:54 PM 70.0 °F - 68.0 °F 93% 30.03 in 6.0 mi South 13.8 mph - N/A   Overcast
1:30 PM 73.4 °F - 69.8 °F 88% 30.04 in 8.0 mi South 16.1 mph - N/A   Overcast
1:54 PM 73.9 °F - 68.0 °F 82% 30.02 in 10.0 mi SSW 13.8 mph - N/A   Overcast
2:54 PM 79.0 °F - 68.0 °F 69% 30.01 in 10.0 mi SSW 13.8 mph - N/A   Overcast
3:54 PM 81.0 °F 83.8 °F 68.0 °F 65% 29.99 in 9.0 mi SSW 11.5 mph - N/A   Mostly Cloudy
4:54 PM 81.0 °F 83.8 °F 68.0 °F 65% 29.97 in 8.0 mi SSW 11.5 mph - N/A   Mostly Cloudy
5:54 PM 80.1 °F 82.7 °F 68.0 °F 67% 29.96 in 8.0 mi SSW 11.5 mph - N/A   Mostly Cloudy
6:54 PM 79.0 °F - 69.1 °F 72% 29.95 in 8.0 mi South 11.5 mph - N/A   Scattered Clouds
7:54 PM 75.9 °F - 69.1 °F 79% 29.93 in 8.0 mi SSE 9.2 mph - N/A   Mostly Cloudy
8:54 PM 75.0 °F - 69.1 °F 82% 29.93 in 9.0 mi South 11.5 mph - N/A   Scattered Clouds
9:54 PM 73.9 °F - 69.1 °F 85% 29.94 in 8.0 mi South 9.2 mph - N/A   Scattered Clouds
10:54 PM 73.9 °F - 69.1 °F 85% 29.94 in 8.0 mi South 9.2 mph - N/A   Partly Cloudy
11:54 PM 73.9 °F - 69.1 °F 85% 29.94 in 8.0 mi South 12.7 mph - N/A   Clear